Theta_e
351 352 355 356 356 355 354 354 354 353 354 354 353 353 352 353 352 352 351 351 351 350 351 352 352 352 352 351 352 352 352 352 352 351 351 351 351 350 348 348 347 346 347 347 346 347 346 346 345 345 346 347 346 347 347 345 343 342 342 342 342 342 341 339 338 338 337 338 339 337 338 339 339 342 341 341 342 341 342 343 341 339 339 341 344
350 354 355 355 356 355 354 354 354 353 354 353 353 353 352 352 352 351 351 350 351 352 351 351 351 351 351 351 351 352 352 352 352 351 352 352 352 350 348 348 348 348 347 346 346 347 348 348 348 347 347 348 347 347 347 344 342 341 341 342 343 343 343 341 339 339 337 336 337 337 336 337 340 343 342 342 342 342 341 342 342 338 337 342 342
352 354 354 354 356 355 354 353 353 353 353 353 353 352 352 352 352 352 351 351 351 350 350 350 351 351 351 351 351 351 351 351 351 352 352 352 352 352 350 350 350 349 349 348 349 351 351 351 350 350 350 350 350 349 347 345 344 343 343 342 342 343 343 342 342 341 339 340 339 339 338 338 338 339 341 342 342 341 341 341 341 341 338 342 342
352 354 354 354 355 355 354 353 353 353 353 352 352 351 352 352 352 351 351 351 351 350 350 350 351 350 350 351 351 351 351 350 351 351 351 351 350 351 351 351 349 347 346 346 346 347 349 349 349 349 349 349 349 348 348 347 345 343 343 342 342 342 342 342 340 338 339 339 339 337 336 329 334 337 338 340 340 341 340 340 340 340 341 341 341
351 353 354 353 353 354 354 353 353 353 353 352 351 352 352 351 351 351 351 351 351 351 350 350 350 351 351 351 351 351 351 351 350 350 350 350 350 350 349 350 350 348 346 345 346 345 346 348 347 347 348 348 349 348 347 347 346 344 343 343 343 344 343 341 341 340 338 338 339 336 328 328 330 335 336 338 339 339 339 339 339 339 339 339 339
352 353 353 352 351 353 354 353 353 353 352 352 351 352 351 351 352 352 352 350 350 351 351 351 350 351 351 351 351 351 350 350 351 351 351 350 350 350 349 348 348 348 348 347 347 345 345 346 347 347 348 349 348 348 348 347 346 346 345 344 343 344 345 344 341 340 339 337 338 331 329 329 330 332 336 339 338 337 337 338 337 338 337 338 338
352 352 352 351 351 352 353 353 353 353 352 351 351 352 352 352 352 352 352 351 351 351 351 351 351 351 351 351 351 351 350 350 352 352 351 352 351 348 347 347 347 348 347 347 344 344 344 345 346 347 347 347 347 347 346 346 345 345 345 344 344 344 344 343 340 339 338 335 329 329 330 330 330 333 336 336 335 335 335 336 336 336 337 337 337
352 352 351 350 349 352 353 353 353 353 351 351 351 352 351 350 352 351 351 351 351 351 351 351 351 351 351 350 350 349 349 350 350 349 349 349 349 349 348 346 347 348 347 347 345 345 346 345 346 346 347 347 347 346 346 345 345 344 344 343 343 343 344 343 340 340 338 331 330 330 328 328 328 330 338 337 337 336 336 336 335 335 336 340 339
350 351 350 349 349 352 352 352 352 353 352 351 351 351 350 350 352 352 351 351 350 350 350 350 350 350 350 350 349 349 352 352 352 352 352 348 350 349 348 348 348 347 347 346 345 344 344 345 346 346 347 346 345 345 345 345 345 344 344 344 345 345 345 344 340 338 333 330 330 329 328 327 327 327 334 335 333 334 335 337 335 334 336 338 338
350 350 349 348 349 352 352 352 352 352 352 352 351 351 352 352 352 351 350 350 349 350 350 350 350 350 350 350 349 350 351 351 351 352 352 352 352 353 352 351 349 348 348 347 345 344 344 345 346 346 346 345 345 345 345 345 345 345 345 345 345 345 346 342 338 336 329 331 331 330 331 336 328 329 334 336 336 337 335 335 338 334 336 336 336
349 349 349 348 349 351 351 352 352 352 353 353 352 353 352 351 351 349 348 349 349 349 350 350 351 349 349 349 349 350 350 350 350 350 351 351 350 351 351 350 349 348 347 346 345 344 344 344 344 345 345 344 345 345 345 346 345 345 346 345 342 344 342 338 335 330 331 332 331 329 335 337 328 330 336 337 335 336 336 336 335 335 335 335 335
348 349 349 349 352 351 351 351 352 352 352 353 352 352 352 352 351 350 350 350 350 349 349 350 349 348 349 349 348 349 349 349 349 350 350 350 350 350 350 349 349 348 347 346 345 345 344 344 345 345 344 345 345 345 345 345 345 345 347 344 340 340 339 338 333 332 333 333 333 331 330 330 330 334 337 337 336 335 335 334 334 334 335 335 335
348 349 350 350 349 351 351 351 352 352 353 353 352 352 351 351 350 350 350 350 350 350 350 350 350 350 350 350 349 349 349 349 349 349 349 349 350 350 349 349 349 348 348 346 345 345 345 345 345 345 345 345 345 345 345 345 345 346 347 344 339 340 340 340 334 334 335 334 334 332 330 328 330 335 336 337 336 335 334 334 336 337 336 336 336
348 349 350 349 348 352 351 351 351 352 352 352 352 352 351 350 350 350 351 350 350 350 350 350 350 350 350 350 350 349 348 348 348 348 349 349 349 350 350 349 349 347 347 346 345 345 345 345 345 345 344 344 344 345 345 345 345 346 346 346 341 341 341 340 339 335 336 334 334 331 328 329 328 335 336 335 335 335 334 334 333 332 333 332 333
347 349 349 349 350 350 352 351 351 351 350 351 351 351 351 350 350 350 350 350 350 350 350 349 350 349 350 349 349 348 348 348 348 348 348 348 348 348 348 348 348 347 347 346 345 344 343 344 344 344 344 344 343 344 344 345 345 345 346 346 342 341 340 335 335 334 334 334 333 332 328 327 334 334 334 334 334 334 333 333 333 333 333 332 332
349 349 350 349 349 349 349 351 351 351 351 351 351 351 350 350 350 350 350 350 350 350 350 350 349 349 349 349 349 349 348 349 348 348 348 348 348 348 347 347 347 347 346 346 345 344 344 344 344 344 343 344 344 344 344 345 345 345 346 345 341 340 340 337 332 332 331 331 332 332 330 333 337 337 337 337 336 336 335 334 333 333 333 333 332
349 349 349 349 349 348 348 348 349 351 351 351 350 350 350 350 349 349 350 350 350 350 350 349 348 348 349 349 348 348 348 348 348 348 348 348 347 347 348 348 347 347 346 345 345 344 343 343 343 343 343 343 343 344 344 344 345 346 346 344 341 340 340 337 331 329 330 333 334 331 331 332 337 334 335 335 335 334 333 333 334 334 333 333 332
348 349 348 348 348 348 347 346 347 347 347 349 350 350 349 349 349 349 349 349 349 349 349 349 348 348 348 349 349 349 348 348 348 348 348 347 347 347 347 347 346 346 345 345 344 344 343 343 343 343 343 343 343 343 344 344 345 346 345 344 341 341 340 338 329 330 332 337 331 333 331 337 337 335 335 335 334 334 334 333 333 333 333 332 331
347 348 348 348 347 347 346 345 346 346 346 346 346 348 349 349 349 349 349 349 348 349 349 349 348 347 347 348 349 348 348 348 348 348 347 347 347 347 346 346 346 345 344 344 344 344 342 342 342 342 342 342 343 342 343 343 344 345 345 343 341 341 340 335 330 331 333 332 330 329 330 339 338 335 334 335 335 334 334 334 334 334 333 332 332
346 346 346 347 347 346 346 345 345 346 345 345 345 346 349 349 349 349 349 348 349 349 349 349 349 348 348 347 347 347 346 346 348 346 348 347 346 345 346 345 345 345 344 344 344 343 343 342 341 341 341 341 342 342 343 343 344 345 344 342 342 341 332 328 330 330 330 330 331 328 339 339 338 338 337 335 335 335 334 334 334 334 333 333 332
343 344 345 345 346 345 345 345 346 345 345 345 342 344 348 349 349 349 349 349 348 349 349 349 348 347 346 346 345 343 342 344 344 344 347 345 346 346 346 345 345 344 344 344 344 343 343 342 342 341 341 341 341 342 341 340 343 344 344 342 341 330 329 328 329 332 331 332 334 331 340 340 338 339 339 336 336 335 334 333 334 334 334 333 333
340 342 344 345 344 344 344 345 345 344 344 343 342 343 346 346 345 346 347 346 347 347 345 345 347 344 346 344 342 344 341 342 344 347 343 345 344 346 345 345 344 344 344 343 343 342 342 342 341 340 341 341 342 331 332 338 341 343 343 341 330 328 329 329 330 331 331 329 333 337 340 340 338 338 339 338 338 338 336 336 334 334 333 333 333
338 340 342 343 344 344 344 344 344 343 342 341 341 343 343 342 342 344 345 346 345 346 343 343 340 341 341 341 342 341 341 342 342 344 344 345 344 345 345 345 345 344 343 343 342 342 341 341 341 340 341 340 330 328 329 327 329 341 341 332 328 329 329 330 330 331 330 329 329 340 341 340 338 338 338 338 338 338 336 336 335 335 334 334 333
338 340 340 343 343 343 343 343 343 342 340 339 340 340 341 341 340 340 341 341 341 340 339 339 340 340 340 339 339 341 339 339 347 347 347 342 342 345 344 344 343 343 343 341 341 341 341 340 340 339 330 329 323 324 328 327 328 330 329 328 328 329 330 330 329 329 330 336 331 340 341 341 338 337 338 339 340 339 338 337 335 334 333 333 333
337 339 340 341 342 342 342 341 341 339 338 339 339 337 338 338 338 339 339 339 338 337 338 338 339 339 339 338 338 338 336 336 338 339 337 338 336 337 339 338 337 337 338 331 332 333 327 324 323 327 322 324 325 324 326 326 329 331 330 328 329 329 330 331 330 329 328 330 333 342 342 341 338 338 339 341 341 340 339 336 335 334 334 332 331
337 338 338 339 340 341 340 339 338 336 336 336 335 338 338 337 337 337 338 338 337 336 336 336 337 338 338 338 337 335 336 337 337 336 336 336 336 335 335 334 333 333 335 331 329 327 324 324 325 326 326 325 325 325 327 328 329 330 330 329 329 329 330 328 329 328 328 329 334 341 341 341 341 340 340 342 341 340 338 336 335 334 333 333 332
337 337 338 337 339 339 338 337 336 335 336 337 337 336 335 336 336 336 336 336 337 336 336 335 336 337 338 338 335 334 334 334 334 333 333 334 334 333 333 332 330 331 333 331 329 327 327 326 325 325 324 325 326 327 327 327 328 329 329 329 330 330 330 330 328 328 328 329 337 340 340 341 343 341 341 342 341 340 338 338 336 335 334 333 333
336 336 336 336 337 335 337 337 336 336 335 336 335 334 334 334 336 339 336 339 336 335 334 335 336 337 338 337 337 334 334 334 334 334 332 333 332 332 329 329 329 330 332 330 328 326 326 325 325 324 326 326 327 328 328 328 327 329 329 329 330 330 330 329 330 327 328 329 332 339 340 339 342 342 341 341 340 339 337 336 336 336 335 334 333
334 335 335 336 336 335 336 336 336 335 334 334 334 333 332 332 334 334 335 340 334 334 335 336 335 336 336 336 337 333 332 334 333 332 331 331 330 330 328 328 329 330 330 328 329 327 326 325 325 325 324 325 325 327 329 328 327 328 329 329 330 330 329 330 330 329 328 328 329 336 340 340 340 341 340 340 338 337 334 335 338 337 337 334 332
335 335 335 335 335 335 335 335 335 334 334 333 332 332 332 331 332 334 336 338 334 334 336 335 336 336 336 336 336 334 334 333 332 330 331 330 329 328 329 328 330 328 328 327 326 327 326 325 325 325 325 323 326 329 328 328 328 328 328 329 329 329 329 330 330 329 329 329 329 333 340 340 339 339 341 338 336 335 334 334 337 338 337 334 333
334 334 334 335 335 335 334 334 334 335 333 332 331 331 332 331 333 334 336 334 333 335 336 335 335 335 336 337 336 336 334 332 331 329 329 327 326 328 328 328 327 327 327 328 329 328 326 326 326 325 322 325 326 327 328 327 328 329 328 329 328 329 329 329 329 329 331 328 328 330 336 341 341 341 340 340 337 336 335 334 338 338 336 335 334
333 334 334 335 335 335 334 334 334 334 332 332 332 331 331 331 332 332 333 332 333 333 334 334 337 335 337 336 335 333 333 330 329 327 326 325 325 325 327 327 327 329 326 326 327 327 328 328 328 326 325 324 325 326 327 327 326 328 329 329 329 329 328 329 328 328 329 328 329 329 332 335 341 340 340 341 342 338 336 334 333 337 337 336 336
332 333 333 335 334 334 334 333 334 333 331 331 331 331 331 332 331 332 332 333 332 333 333 334 334 335 335 335 335 334 333 330 328 328 329 325 326 326 326 327 329 330 327 326 328 328 329 328 328 327 326 325 325 326 327 327 326 326 328 329 329 329 329 330 329 329 329 329 328 328 329 331 331 339 340 341 341 341 340 336 335 335 337 337 337
329 330 332 333 335 335 334 333 333 332 331 331 331 331 331 331 332 331 332 331 330 331 333 332 335 334 335 335 335 334 332 331 331 329 328 326 325 326 329 331 331 330 328 327 327 326 327 326 327 326 329 325 324 324 325 325 325 327 327 327 328 328 328 330 329 328 329 329 327 328 328 328 329 331 333 339 341 341 341 340 338 336 336 337 337
330 331 332 333 333 332 334 333 333 331 332 331 331 330 330 330 330 329 329 330 331 331 331 331 332 332 334 332 334 334 331 330 328 328 327 327 326 327 331 332 332 329 327 325 327 324 325 325 325 325 324 324 325 326 325 324 325 326 326 326 326 326 327 329 329 327 328 325 327 327 327 327 327 329 329 329 335 339 338 336 335 337 337 337 337
329 331 333 333 331 331 332 331 331 330 330 330 329 329 329 328 329 332 329 329 329 331 330 331 331 330 331 330 330 332 330 329 328 327 326 326 327 328 331 331 330 326 325 325 325 325 324 325 325 325 324 324 326 324 325 325 325 325 326 326 326 327 326 326 328 327 326 325 326 324 325 326 326 330 334 328 330 336 338 339 338 338 337 335 334
330 331 332 332 331 331 331 330 329 329 330 330 329 328 328 328 329 330 329 329 329 328 328 328 329 331 329 329 329 331 329 329 328 326 326 327 328 328 329 329 328 327 325 323 323 324 325 325 324 325 325 324 325 325 325 325 325 326 326 325 324 325 324 325 325 324 327 324 324 324 325 325 332 336 326 326 328 328 334 336 337 336 336 335 335
331 332 333 332 331 331 331 330 330 330 329 330 329 328 328 329 329 329 331 328 328 327 328 328 328 329 329 330 330 331 330 329 328 328 326 328 328 328 330 329 327 326 324 324 323 322 323 324 323 323 326 326 326 325 325 325 326 327 326 325 324 324 324 324 325 329 323 324 324 324 323 324 327 326 325 326 327 326 326 331 335 335 335 335 336
332 332 332 332 332 331 331 331 331 330 330 330 330 329 328 328 326 328 327 326 328 327 328 328 329 330 329 329 330 331 332 330 330 330 329 329 326 328 329 328 326 325 325 324 324 324 323 322 324 323 326 326 326 326 326 326 326 325 325 325 325 324 324 325 325 324 324 323 326 328 326 324 326 325 326 328 327 326 328 329 330 329 329 332 332
330 331 331 331 331 330 331 331 331 331 331 330 330 329 328 329 329 330 330 329 327 329 327 328 330 330 331 331 331 329 331 332 330 328 329 328 327 327 327 326 326 326 324 323 323 323 323 323 323 324 324 325 326 326 327 326 323 323 324 324 324 325 326 325 324 324 322 323 324 324 323 325 325 328 329 329 328 329 330 330 329 325 323 326 328
330 330 330 330 330 330 330 329 330 331 330 329 328 328 328 329 330 330 329 328 328 327 329 328 330 328 330 331 332 331 330 331 331 328 326 330 327 325 326 325 326 326 324 323 323 323 322 323 324 323 323 323 323 325 326 324 322 319 321 321 321 324 327 325 323 324 324 323 323 322 322 324 325 327 329 330 331 331 329 329 327 325 323 321 321
327 328 328 328 329 330 329 329 330 330 329 329 328 327 328 329 330 330 327 328 329 329 325 324 326 331 332 332 332 331 330 330 331 327 326 326 325 325 325 326 326 325 323 323 324 327 324 324 324 322 320 321 321 324 325 321 318 317 316 315 318 319 321 320 321 323 324 323 322 321 321 324 326 327 329 330 331 330 329 328 326 324 322 319 318
327 327 328 328 329 329 329 329 329 328 327 329 328 327 325 328 330 327 325 323 325 326 325 326 330 330 330 331 331 330 330 330 330 329 327 327 326 325 325 326 326 327 324 324 325 324 324 323 323 323 321 321 323 324 321 317 317 316 317 315 311 311 315 315 317 315 320 319 321 321 323 326 327 327 327 327 327 328 329 328 325 322 319 315 314
326 326 327 328 328 328 328 328 328 327 327 328 328 325 327 324 323 324 323 322 323 326 325 326 327 329 328 328 327 328 329 328 329 329 328 327 326 326 327 327 326 326 324 323 324 324 323 322 322 323 324 322 316 317 322 320 318 319 311 309 310 309 307 310 309 312 315 319 320 320 323 324 324 324 324 325 326 328 328 326 319 317 315 313 312
325 326 328 328 328 327 327 327 327 326 326 329 326 325 325 322 322 322 324 324 325 324 324 324 325 327 327 325 326 326 327 328 327 328 327 325 325 327 327 327 326 325 325 323 323 324 324 323 322 322 323 322 317 313 318 321 321 318 315 310 308 308 305 308 306 308 311 313 316 320 325 322 322 322 323 325 327 327 322 315 313 312 311 310 310
324 327 329 329 328 327 326 325 324 324 326 325 324 325 324 322 321 321 320 320 321 321 321 323 323 326 327 323 325 325 325 324 325 326 326 325 325 325 325 326 325 325 325 324 324 323 323 323 321 322 320 320 322 317 315 318 320 321 317 315 313 309 309 308 305 304 310 311 314 318 319 320 320 320 322 325 324 320 317 314 312 310 309 308 307
324 328 329 328 327 326 325 324 324 324 324 322 322 324 320 320 321 322 322 323 322 319 319 321 325 322 322 322 323 323 324 324 324 323 324 323 322 322 323 324 325 324 326 325 325 325 325 325 323 321 321 321 320 317 318 317 318 320 320 319 320 315 315 309 303 304 305 308 310 312 314 317 319 321 322 322 320 317 315 312 309 309 308 307 306
324 327 328 328 327 324 323 322 323 324 321 321 320 321 320 320 320 321 323 323 323 321 320 320 319 320 321 320 320 321 322 322 322 321 322 324 322 321 322 322 324 324 326 324 325 324 326 325 323 322 322 322 321 320 317 317 320 318 319 317 317 316 313 310 310 309 306 307 307 310 310 312 315 316 318 318 315 311 309 308 307 306 305 306 305
324 326 327 327 325 323 322 321 321 321 319 319 319 318 320 320 321 322 321 320 319 319 318 318 319 318 318 316 318 319 319 319 320 320 321 322 324 322 320 321 323 325 327 325 323 325 325 323 322 321 321 319 319 319 319 318 318 318 318 315 315 313 312 312 310 309 306 305 304 306 306 309 313 312 314 312 310 310 309 308 310 307 309 305 304
323 325 324 325 324 322 321 321 320 319 319 318 319 318 319 320 319 319 318 315 316 315 316 316 315 315 316 314 315 315 316 316 317 318 318 320 321 321 321 321 321 324 325 324 324 322 321 323 323 322 320 320 318 320 320 319 319 318 319 318 314 311 311 309 307 308 308 306 307 305 306 309 309 308 310 309 308 307 306 305 303 303 302 303 303
322 323 323 322 322 321 320 320 319 319 319 319 319 319 319 318 318 317 317 315 314 315 315 314 314 313 315 313 314 314 315 315 316 315 315 316 316 318 318 318 319 325 323 322 323 324 323 323 321 320 320 320 318 318 317 317 318 318 317 319 316 314 311 309 308 308 306 304 305 304 304 305 307 307 305 307 306 304 304 302 302 301 302 301 301
Wind_Speed
8 10 9 12 12 13 15 15 15 16 16 16 16 15 16 18 19 20 20 21 21 21 21 21 21 21 21 22 22 22 21 21 21 22 21 20 20 22 20 20 20 20 20 20 21 21 21 21 21 21 21 20 19 18 17 17 17 17 18 17 16 17 17 15 15 16 16 17 17 16 16 14 16 18 16 16 17 17 17 16 13 9 7 13 18
12 10 10 10 14 14 15 16 16 17 16 15 15 15 16 17 18 19 20 20 20 20 20 21 21 21 20 20 22 22 22 22 21 21 20 20 21 21 21 20 20 20 21 21 20 21 21 21 20 20 20 19 19 19 18 18 18 16 15 17 17 18 16 15 15 15 16 16 15 16 15 15 15 17 16 16 16 17 16 16 16 7 6 16 18
12 11 9 11 15 15 15 17 17 16 16 15 16 15 16 17 18 18 19 20 20 20 20 20 19 21 20 20 20 20 21 22 21 21 21 20 20 21 22 20 20 19 19 20 20 20 20 20 19 19 18 18 18 18 17 17 16 14 15 17 18 17 16 16 14 14 15 15 14 14 15 15 15 14 16 16 16 16 16 15 15 12 10 18 16
13 10 10 13 16 15 16 17 18 17 16 15 16 16 16 16 16 17 18 18 18 19 18 20 19 18 18 18 19 20 20 21 21 21 21 20 20 21 21 20 20 20 19 19 20 20 20 20 19 19 19 18 18 18 17 16 15 14 15 16 18 18 17 15 14 13 13 12 11 9 4 5 7 13 13 15 15 15 14 15 15 15 15 15 16
13 11 10 10 11 14 16 18 19 17 16 16 16 16 16 15 16 17 17 17 17 18 19 18 18 18 18 19 18 19 20 20 20 20 19 19 19 19 19 19 20 20 18 19 19 18 19 19 19 19 18 18 18 16 16 15 15 13 13 15 15 15 16 14 14 12 12 12 11 7 5 5 5 11 12 13 14 14 13 13 14 14 14 14 15
12 11 10 9 10 12 17 18 19 18 17 16 16 16 15 15 16 16 16 16 17 18 18 17 17 16 17 17 18 18 18 19 17 19 18 17 17 19 19 19 19 19 19 18 18 18 18 19 19 18 17 17 17 17 15 14 13 13 11 9 8 6 10 10 12 13 11 11 9 6 6 5 4 6 13 14 12 12 12 12 13 12 13 14 14
13 10 10 10 9 11 17 18 19 18 17 17 16 16 16 15 15 15 15 16 16 17 17 17 16 17 16 17 17 17 16 15 14 17 17 16 15 16 18 18 18 18 18 17 15 17 17 16 17 17 16 15 15 16 15 14 12 11 9 8 6 7 9 11 13 11 9 6 5 4 5 5 4 5 12 11 11 11 11 11 11 11 12 12 11
10 9 10 9 9 14 18 18 19 18 18 17 16 16 16 16 15 16 16 16 16 16 16 16 16 17 16 16 17 17 15 13 14 15 15 14 14 15 16 18 18 17 17 16 14 16 16 17 16 15 15 15 15 15 15 13 12 10 8 7 6 5 7 9 13 12 10 5 4 5 5 5 4 3 14 14 13 12 12 11 11 10 13 15 14
11 10 10 9 10 18 17 17 18 18 18 17 16 16 16 15 15 15 15 16 16 16 16 16 16 17 17 15 16 15 13 15 15 14 12 14 13 12 13 15 16 17 16 14 13 12 14 15 15 15 14 15 15 14 14 13 11 10 8 7 4 5 7 10 13 11 6 4 5 5 4 4 5 5 11 12 12 12 12 10 8 11 13 13 13
11 9 9 8 10 18 17 18 18 18 18 17 17 16 16 16 15 15 16 16 16 15 16 16 16 15 16 16 15 15 15 16 16 15 15 14 13 13 15 17 18 18 16 13 12 11 11 12 12 13 13 13 14 14 13 12 11 10 9 9 9 11 14 14 13 8 4 4 4 4 4 5 2 4 10 13 14 13 12 12 8 7 9 11 12
11 9 8 8 12 17 17 18 18 19 18 17 17 16 15 16 16 15 15 16 16 15 15 15 15 14 15 16 16 15 15 16 16 16 16 16 16 16 17 17 17 17 15 12 11 10 11 11 11 12 13 13 13 13 12 12 11 11 11 11 13 15 16 14 10 5 4 4 3 3 5 8 5 5 13 13 13 14 13 13 12 11 11 11 11
11 9 8 8 13 16 16 16 17 17 17 16 17 16 16 15 16 15 15 16 14 14 14 13 13 14 14 14 15 14 15 15 16 16 16 16 16 16 17 17 16 16 15 12 10 10 10 10 11 12 12 12 12 13 12 11 11 11 11 12 14 14 15 13 7 5 4 4 4 4 4 5 5 8 13 13 13 13 13 12 12 13 13 13 13
11 10 9 8 9 14 14 15 15 15 15 15 15 15 15 15 16 15 15 14 13 13 14 13 12 12 13 15 15 15 14 15 15 15 15 15 15 16 17 16 16 16 15 12 10 10 10 10 10 11 11 11 12 12 12 12 11 11 11 13 15 14 14 12 5 6 5 4 4 4 4 4 4 12 12 13 13 12 12 12 13 12 13 13 13
11 10 9 8 8 14 14 14 14 15 15 14 14 14 14 14 15 14 13 13 13 13 13 13 12 13 13 13 13 13 13 14 14 14 15 15 15 16 16 16 15 15 14 12 9 9 10 10 10 10 10 10 10 11 11 12 11 11 11 13 15 14 14 10 8 5 5 5 4 4 3 3 4 12 12 12 12 12 12 10 10 11 11 11 11
11 11 9 8 8 8 15 14 14 14 14 13 14 14 14 14 14 13 13 13 13 13 14 14 13 13 13 14 14 13 13 13 13 14 14 14 15 15 16 15 15 14 13 12 9 8 9 9 9 8 9 9 9 10 11 11 11 10 9 10 16 14 13 6 6 5 5 5 3 4 4 4 10 11 12 11 11 11 10 10 11 12 11 11 11
11 11 10 9 8 8 8 14 16 14 13 13 14 14 15 15 14 14 13 13 13 13 13 13 13 14 13 13 13 13 13 14 14 14 14 14 14 15 15 15 15 14 14 12 9 7 8 8 7 7 8 8 9 10 11 11 10 9 8 9 15 15 13 7 5 4 4 4 4 4 4 5 12 11 11 12 11 11 11 11 10 10 11 11 11
10 10 11 10 9 8 8 8 12 18 14 14 15 15 15 14 14 14 12 12 13 12 13 13 13 13 13 13 13 12 13 13 13 14 14 14 14 15 15 15 14 15 14 13 10 7 7 6 6 7 7 8 9 10 11 11 9 9 7 12 14 14 14 9 5 4 5 4 3 4 4 4 11 11 10 11 10 10 10 10 10 11 11 12 11
10 10 10 10 9 8 7 7 9 9 9 13 15 15 14 14 13 13 13 13 12 12 12 12 13 11 12 12 12 12 12 13 14 14 15 14 14 14 14 14 13 13 13 13 11 8 5 5 5 6 7 7 9 10 11 11 10 9 8 13 13 13 13 10 5 4 3 4 4 3 3 9 13 11 12 11 10 10 10 9 9 9 10 11 11
9 10 10 10 10 9 8 7 7 8 9 7 7 12 15 14 13 13 13 13 12 12 12 11 13 13 12 11 11 12 12 13 14 14 14 14 13 13 14 13 12 12 12 12 12 10 6 4 5 5 6 6 7 9 10 11 9 9 9 14 14 13 13 7 5 3 3 3 3 3 4 12 12 13 11 10 10 9 9 9 9 10 10 10 10
9 9 9 9 9 9 8 7 7 8 7 7 7 9 12 14 13 14 13 13 12 12 12 12 13 13 12 12 12 9 9 9 13 10 14 14 11 8 12 12 12 11 11 10 11 10 8 3 3 5 5 5 6 8 10 10 8 7 6 13 13 13 6 5 4 4 4 3 3 3 7 11 12 13 12 11 10 9 9 8 9 9 10 9 9
6 8 8 8 9 9 9 7 9 9 8 8 7 7 10 13 11 13 13 13 13 13 13 14 13 12 10 11 9 6 5 5 6 5 11 7 8 10 12 13 11 10 11 10 10 10 8 4 3 5 5 5 6 9 10 9 7 6 7 12 12 6 5 4 5 5 3 3 3 3 8 9 11 12 12 10 10 10 9 8 9 9 9 9 9
8 8 8 9 9 8 8 9 8 9 8 6 5 6 8 9 6 7 7 10 11 12 9 7 9 5 10 8 5 4 4 5 5 7 5 6 8 11 12 12 11 11 10 9 10 9 8 6 2 2 4 5 6 4 5 6 7 7 9 11 7 5 4 4 5 5 3 3 3 5 10 9 10 10 11 10 9 10 9 9 9 9 9 10 10
8 7 7 8 6 7 9 8 8 8 8 7 6 5 5 4 4 5 6 9 8 7 5 6 4 5 5 4 4 4 4 4 4 5 5 9 7 10 11 11 11 11 10 9 9 9 7 5 3 2 3 4 2 4 4 4 3 8 9 7 5 5 4 4 4 4 4 3 3 8 8 10 10 10 10 10 10 9 9 9 9 9 9 9 9
5 5 7 5 6 7 9 8 9 8 8 5 4 4 5 5 4 4 5 4 5 5 5 5 5 5 5 4 5 4 3 3 7 11 9 5 6 9 9 9 10 10 10 7 8 7 6 4 3 3 2 2 1 4 4 3 4 5 6 6 5 5 5 4 4 3 3 3 2 9 6 8 9 9 9 9 10 10 9 9 9 8 8 8 8
3 3 5 6 6 7 7 7 7 7 7 4 5 5 4 5 4 5 4 4 5 5 5 4 5 5 4 4 4 3 3 2 3 4 4 5 4 3 3 3 3 4 6 4 4 3 3 2 2 1 0 0 1 4 4 3 3 6 6 5 5 4 4 4 3 2 1 2 2 6 4 6 8 8 9 11 11 11 9 9 8 8 8 8 8
10 7 7 7 6 7 8 7 8 7 7 6 6 5 5 5 5 5 5 4 5 5 4 4 5 5 5 5 4 4 4 3 4 3 3 4 4 4 2 2 2 2 3 4 3 3 2 1 1 1 0 1 1 3 3 3 4 6 5 5 5 4 5 4 3 2 1 2 2 5 5 5 7 7 9 10 10 11 9 9 8 8 7 7 7
8 8 9 7 8 8 9 8 8 7 7 8 6 6 4 4 5 5 6 5 4 5 4 4 4 5 5 5 5 4 4 4 4 3 3 3 4 2 1 1 2 2 2 4 3 3 3 3 3 3 2 2 3 4 4 3 3 6 6 5 5 5 5 4 3 3 1 2 3 6 5 5 7 7 8 9 10 10 10 9 8 7 7 7 7
8 9 8 9 10 9 9 10 9 9 8 8 8 6 4 4 4 5 5 6 4 5 4 3 3 4 4 4 4 4 4 5 4 4 3 3 2 2 1 1 2 3 2 4 4 3 3 2 2 2 3 3 5 4 4 3 3 6 6 5 5 5 5 4 4 3 1 2 2 3 4 5 7 7 9 9 9 8 7 7 7 7 7 7 6
12 11 10 10 11 11 9 10 9 8 7 7 9 6 5 5 4 6 6 6 5 3 4 3 4 4 4 4 5 5 3 4 4 4 4 3 2 2 2 2 2 2 3 4 4 4 3 3 3 2 3 4 5 5 5 4 4 5 7 6 5 5 4 4 4 3 3 2 2 2 4 4 4 8 8 8 8 7 5 6 7 7 7 7 6
12 13 12 11 12 12 13 12 11 10 8 6 6 7 5 5 4 5 5 4 4 4 4 4 4 4 4 4 3 4 4 5 4 3 4 3 3 2 2 2 3 2 4 4 3 4 4 3 3 2 3 3 5 4 5 5 5 5 5 6 5 4 4 5 4 4 3 3 2 1 5 5 4 4 7 6 6 6 4 5 6 6 7 7 6
11 11 9 10 13 13 13 13 11 10 9 7 7 8 6 4 4 5 5 6 5 4 4 4 4 4 4 4 3 2 3 3 4 4 2 3 3 4 3 2 2 1 3 3 2 3 3 4 3 2 2 4 4 4 6 6 5 5 4 5 5 4 4 3 3 3 3 2 2 3 4 6 5 5 4 4 7 4 3 5 7 6 7 6 6
11 10 7 7 10 12 13 13 12 11 10 8 8 6 4 5 4 4 4 4 4 4 3 3 3 3 2 3 3 3 3 3 3 3 3 3 2 3 3 3 2 1 2 2 3 3 3 3 3 2 2 3 4 4 4 6 6 5 4 4 4 5 4 4 3 3 2 2 4 4 4 4 6 7 8 8 7 4 5 4 5 7 6 6 5
5 7 7 7 8 9 10 10 10 10 10 9 8 8 6 5 4 4 4 4 3 3 4 3 2 2 3 3 4 4 3 4 3 3 3 2 2 2 2 2 2 2 2 3 3 3 3 3 3 2 4 4 5 5 5 5 6 5 5 4 4 4 4 4 4 2 2 4 4 3 3 3 3 6 8 8 8 7 3 3 5 5 5 5 5
6 7 8 9 7 6 7 7 8 8 8 7 7 7 6 4 4 3 3 4 2 4 4 3 3 3 4 3 4 3 3 3 4 3 3 3 2 2 2 2 2 2 2 3 3 2 3 4 4 4 4 4 4 4 6 6 5 5 5 3 4 4 4 5 3 2 3 3 2 3 4 4 4 4 4 7 9 8 9 7 4 4 3 5 4
8 8 9 9 9 6 7 7 8 8 8 6 7 6 4 4 4 3 3 4 3 3 3 3 2 1 3 3 3 3 3 3 3 4 3 3 4 2 2 2 2 2 3 2 4 2 3 4 4 5 4 4 4 4 4 5 5 6 5 4 5 4 3 4 3 2 3 2 3 3 3 3 3 4 4 4 6 8 10 8 7 8 11 11 9
10 11 9 9 9 8 9 8 9 9 8 6 4 4 4 4 4 4 4 3 3 4 4 3 2 1 2 3 3 3 3 3 3 3 4 3 4 4 2 4 3 2 2 3 3 4 3 4 3 4 6 4 5 5 4 5 5 5 3 3 3 3 2 4 4 3 2 2 2 2 3 3 3 4 4 3 3 6 11 11 11 11 10 7 3
10 11 10 10 9 9 10 11 10 8 7 6 5 5 5 5 4 4 4 4 4 4 3 2 2 3 2 3 3 3 3 3 3 2 3 3 3 3 2 3 3 3 3 2 3 2 4 5 3 2 3 5 5 6 5 5 5 4 2 3 3 3 3 2 3 3 3 2 2 2 2 2 1 5 3 3 3 4 8 11 11 12 11 7 5
10 10 9 10 11 9 9 10 9 8 6 7 6 5 5 5 4 4 3 4 3 2 2 2 2 2 2 3 3 2 3 3 3 3 3 2 2 3 3 3 3 3 3 3 3 2 3 4 5 3 4 5 5 6 6 5 5 4 3 4 3 3 2 2 2 2 2 2 1 1 1 1 2 3 3 4 3 4 5 8 13 14 13 11 12
7 9 8 9 9 8 8 9 9 7 6 7 7 5 5 4 4 4 3 2 1 1 2 2 2 3 2 2 3 3 3 3 3 3 4 4 3 3 4 3 3 3 4 4 4 3 3 3 5 5 5 5 5 5 6 6 6 4 3 2 2 2 2 2 2 3 3 1 0 0 3 3 3 3 3 3 3 4 5 5 5 5 7 13 12
6 8 9 9 9 8 8 8 8 7 6 7 6 6 5 5 6 4 3 3 2 2 2 2 3 4 3 4 4 4 4 4 4 3 4 4 4 3 4 3 3 3 3 4 4 4 5 6 5 6 6 6 5 5 6 8 8 6 6 5 4 3 4 4 3 2 2 1 1 3 3 3 3 3 4 4 5 4 5 6 5 4 5 8 12
6 8 9 9 9 9 9 10 8 7 6 7 6 7 6 6 4 5 4 4 4 2 3 3 4 2 3 3 4 5 4 4 3 4 4 3 3 3 4 3 3 3 3 3 3 4 3 4 5 4 6 7 3 3 4 6 11 7 5 4 5 4 3 2 1 3 2 1 3 3 3 3 3 4 4 4 4 5 4 6 5 4 4 4 6
7 7 9 9 8 9 10 10 8 7 7 7 7 6 5 6 6 5 3 3 3 4 3 2 3 3 3 4 5 5 5 4 3 3 3 4 4 3 4 4 4 4 2 3 4 4 4 4 5 5 2 5 3 2 3 3 3 6 7 3 5 5 3 4 4 4 3 3 3 4 4 4 4 4 4 4 4 5 4 5 5 4 4 5 5
7 7 7 9 9 8 8 8 7 8 7 7 7 6 3 4 4 3 4 2 1 1 2 2 3 4 3 3 4 4 5 4 4 4 4 3 4 4 4 4 4 4 4 4 4 5 5 5 5 7 5 2 3 1 1 1 4 4 5 6 2 3 4 3 3 5 3 3 4 4 4 5 5 4 4 5 4 3 4 5 5 5 5 5 5
6 7 8 9 7 7 7 8 8 7 7 5 4 4 5 4 3 3 3 2 3 3 3 3 3 3 3 1 2 3 4 4 4 4 4 4 5 5 4 4 4 3 5 5 4 5 4 4 4 4 6 6 2 1 2 1 4 8 3 2 2 4 3 1 2 3 3 3 4 3 4 5 5 5 4 5 4 5 5 5 6 5 5 4 4
8 8 8 8 6 8 7 8 7 6 5 6 6 6 6 5 4 4 4 5 5 4 4 2 2 2 3 1 2 2 3 4 4 4 4 5 5 5 5 5 4 4 4 4 5 5 4 4 4 5 5 7 4 2 2 3 3 0 7 5 3 1 2 2 2 3 4 3 3 3 5 5 5 5 4 5 4 5 5 5 4 4 4 4 4
9 8 7 7 7 6 6 6 5 5 6 5 6 6 6 7 7 7 5 4 4 4 4 5 3 3 4 1 1 1 2 3 3 3 3 4 5 5 4 5 5 5 5 5 4 4 4 4 4 4 4 1 6 5 2 2 3 4 2 2 4 5 6 3 3 1 2 3 3 4 5 5 4 5 4 4 5 5 3 4 3 4 4 4 4
7 7 7 6 6 6 5 5 6 5 5 5 5 5 5 5 6 6 6 7 7 3 2 3 5 3 2 3 2 1 1 3 2 2 3 3 3 3 3 4 4 4 4 5 5 5 5 4 4 4 4 4 4 5 6 3 2 3 3 2 2 1 7 7 3 3 3 2 4 5 5 5 5 4 5 4 4 4 3 3 4 4 4 4 5
6 7 7 6 7 7 6 6 5 5 4 4 4 5 7 6 6 5 6 6 7 6 5 4 1 2 3 2 1 1 0 0 1 2 3 3 3 2 2 3 3 3 4 4 4 4 4 3 3 3 4 5 6 7 5 5 6 2 2 3 4 4 3 4 4 7 6 6 2 4 4 5 6 4 3 3 3 3 3 3 4 4 4 4 3
6 8 7 7 7 7 6 6 6 5 4 4 4 4 6 7 7 7 6 4 4 4 3 3 3 3 4 2 2 1 1 1 0 1 1 2 3 3 3 3 3 3 4 4 3 3 5 5 4 4 4 4 4 4 6 6 4 5 4 3 5 4 5 4 4 4 5 5 1 2 3 3 5 4 4 3 3 3 3 3 3 3 3 3 3
4 5 6 7 7 7 7 7 6 5 5 4 5 5 5 7 7 7 7 4 4 4 4 4 3 3 4 2 1 1 1 1 1 1 1 1 2 2 3 4 3 4 3 5 4 4 3 4 5 5 3 4 2 5 5 5 4 4 3 5 4 3 5 3 3 5 5 3 7 5 4 7 5 2 3 4 3 3 3 4 4 3 3 3 3
4 5 7 7 7 7 8 8 7 6 5 6 6 7 6 6 8 8 8 7 5 6 5 4 3 3 4 2 2 2 1 2 2 1 2 2 3 3 3 3 3 3 4 5 6 6 5 5 4 3 4 5 4 3 3 3 4 4 3 6 7 8 8 6 6 4 5 3 5 4 3 2 4 5 3 3 3 3 4 4 3 2 2 2 2
Wind_Direction
162 147 142 138 133 133 127 121 119 118 116 113 113 110 105 104 103 105 107 108 110 110 111 112 113 114 116 116 116 116 116 116 117 118 118 117 114 109 107 108 109 110 110 105 105 105 105 105 106 105 102 100 98 93 90 93 98 97 87 86 85 86 88 83 78 75 77 76 82 88 80 82 89 78 78 79 78 77 74 74 68 61 64 68 72
156 148 141 141 138 133 129 125 122 121 116 114 112 110 106 105 105 107 109 111 112 111 113 115 114 117 116 116 118 118 118 118 118 119 120 118 115 113 110 110 109 107 109 111 110 107 105 107 106 105 104 103 103 101 97 101 103 98 93 92 89 89 86 83 78 74 77 81 78 83 88 90 84 86 82 81 80 76 75 74 72 67 64 71 72
139 142 141 142 137 134 130 128 127 124 120 119 117 115 112 111 110 109 111 112 115 115 116 116 115 118 117 118 119 119 120 119 119 119 119 119 118 116 113 112 112 111 109 111 111 109 110 109 109 107 106 104 99 97 100 101 101 99 99 96 91 88 86 83 79 79 78 74 73 68 80 85 82 82 81 77 74 75 75 75 73 68 72 68 66
139 140 140 145 138 134 133 131 130 127 123 121 121 121 118 115 114 113 113 113 113 115 117 118 118 118 119 119 119 121 120 119 119 118 117 116 114 112 113 115 111 110 111 108 109 113 110 109 108 107 106 105 104 104 104 103 103 101 101 102 100 92 89 88 87 85 80 74 64 55 27 30 65 78 82 84 78 76 76 74 73 72 69 66 66
138 138 141 144 140 135 135 133 132 128 126 125 125 126 121 119 118 116 114 113 113 117 118 119 119 120 120 120 120 120 121 122 120 117 116 116 116 115 112 114 115 114 112 111 109 109 112 111 113 110 107 104 103 105 104 104 102 101 104 107 107 86 77 86 93 90 83 74 63 56 47 38 66 82 89 83 78 76 74 75 75 72 69 69 69
138 140 140 139 138 137 136 134 133 130 129 129 130 128 126 123 120 117 115 114 114 114 117 119 120 120 120 120 120 120 120 120 117 119 120 120 120 120 118 117 114 114 115 114 111 113 115 115 112 111 107 107 106 103 98 100 99 102 98 103 105 72 75 82 93 96 90 75 48 39 32 31 46 89 87 84 83 82 83 79 75 73 69 66 67
138 139 139 138 135 138 137 135 133 132 133 134 133 130 128 124 120 117 116 115 115 115 116 119 120 121 120 121 120 119 119 114 108 119 124 129 126 117 118 118 116 115 114 114 115 117 118 115 112 112 109 106 103 102 101 99 96 90 91 100 95 76 77 80 98 97 83 57 43 42 48 48 41 91 92 86 88 93 93 88 77 71 69 70 80
135 138 138 138 139 140 137 134 135 134 136 137 134 133 130 128 123 120 118 118 118 118 118 120 122 123 120 120 119 119 116 107 107 110 107 104 108 117 122 121 118 116 116 115 114 117 117 117 115 114 111 109 105 98 95 95 91 86 82 72 65 73 85 90 99 96 84 71 63 61 58 38 23 37 79 84 86 85 81 85 81 80 78 70 69
141 137 138 139 142 140 136 135 136 136 138 139 138 136 133 129 124 120 118 119 120 121 122 122 123 124 120 118 119 118 106 100 98 99 105 116 116 117 115 116 120 119 114 111 108 109 112 115 115 114 111 107 100 96 92 91 86 82 77 70 76 122 126 117 107 94 81 79 81 85 82 69 58 66 87 87 88 86 72 57 69 83 87 83 78
139 136 139 142 142 140 138 138 139 140 142 142 140 137 134 130 125 122 119 118 120 120 122 123 121 125 124 122 121 115 103 100 99 98 99 101 102 99 97 97 102 108 110 111 109 106 102 101 104 102 97 94 90 88 86 82 77 70 62 65 83 129 128 120 109 93 87 89 94 96 93 80 28 92 99 94 94 94 97 94 93 87 80 77 78
135 136 138 137 143 141 141 141 142 144 145 141 139 137 132 131 124 122 122 120 120 122 122 123 123 126 126 125 122 111 104 101 100 99 96 97 100 104 102 103 107 111 114 115 112 106 102 100 100 97 95 93 90 87 82 77 72 66 66 74 95 103 109 110 100 96 91 88 87 90 87 66 67 74 94 95 91 86 90 93 90 86 82 82 80
135 132 134 138 141 140 141 141 141 141 141 139 139 135 134 131 125 123 123 119 119 121 121 120 124 127 126 125 125 113 107 106 104 102 103 103 104 107 108 108 110 113 115 117 111 105 102 99 96 96 96 93 88 85 81 75 70 68 68 87 102 97 102 104 96 96 93 93 86 68 59 65 77 95 91 94 102 103 95 89 90 87 85 86 91
135 133 133 137 136 140 137 135 137 138 138 137 136 135 135 129 126 124 122 121 121 121 123 123 122 121 125 126 124 120 115 112 111 110 110 109 108 109 111 114 117 119 120 122 119 111 106 101 97 95 92 90 87 83 78 74 71 69 75 96 113 109 110 105 95 98 100 97 94 82 82 92 104 106 105 99 96 93 97 96 83 84 82 78 76
133 130 132 130 133 137 132 131 133 135 137 137 135 134 129 126 124 124 124 124 124 125 125 123 122 125 127 126 124 124 121 120 120 119 118 115 114 115 116 118 118 121 123 123 122 113 108 105 98 89 85 81 78 74 75 74 71 70 80 103 120 117 114 107 108 107 109 111 108 106 95 80 87 105 105 107 107 103 98 92 93 92 88 84 84
130 129 127 125 128 130 131 129 130 132 133 130 132 129 129 124 125 125 125 124 126 127 126 125 126 128 126 126 126 124 125 125 125 124 121 118 117 119 122 122 123 123 124 124 122 114 106 100 93 88 85 78 71 70 67 69 71 72 81 102 125 123 121 116 116 116 117 120 116 111 104 99 102 101 103 98 92 90 89 94 92 95 95 87 79
126 123 121 122 122 125 128 135 130 127 128 130 130 131 129 127 126 127 126 125 127 127 126 126 128 126 125 126 125 127 129 129 128 126 124 123 123 124 125 127 128 126 123 122 122 113 101 92 87 84 78 74 70 64 63 64 67 73 90 112 129 128 129 124 121 119 123 126 128 128 129 118 116 115 120 118 116 112 107 97 94 93 91 88 84
121 119 119 120 120 118 127 130 138 135 129 132 131 130 126 126 127 127 126 126 127 128 128 129 126 127 131 128 128 128 129 129 127 127 125 125 125 126 127 127 127 126 124 124 119 111 102 95 81 71 67 63 62 59 58 59 60 63 88 129 130 133 133 126 118 124 130 134 131 128 128 118 116 113 103 95 96 96 100 103 98 92 86 85 83
116 119 121 121 119 118 119 127 134 132 132 135 134 130 128 128 129 129 130 130 131 131 131 130 128 132 136 132 131 131 130 129 127 126 126 125 127 127 127 129 128 127 127 123 120 114 100 95 85 71 61 55 57 55 56 56 54 58 94 132 131 134 134 124 123 126 133 125 117 122 121 122 117 116 115 115 114 111 103 97 94 93 91 90 93
112 114 114 117 118 119 116 122 124 125 126 128 132 135 132 133 132 132 133 134 136 134 132 132 135 136 138 139 134 134 133 128 126 123 123 125 126 126 128 127 128 127 125 125 123 118 106 83 81 65 57 49 51 55 55 56 52 56 92 131 132 134 132 121 123 121 109 111 123 118 132 126 124 117 112 109 105 107 111 107 98 89 88 91 89
109 112 111 110 117 116 118 118 120 124 126 128 134 139 138 138 136 137 136 137 137 137 138 137 134 135 142 143 139 135 130 124 123 123 123 123 120 121 126 125 125 123 122 126 120 117 114 91 70 60 48 42 45 51 55 54 53 57 91 130 134 130 117 121 112 106 113 130 129 145 139 136 127 126 121 118 118 116 110 101 99 101 96 92 89
102 108 113 117 113 115 120 119 123 124 129 132 137 142 146 140 135 137 137 138 141 142 142 138 136 137 139 138 130 125 129 123 115 117 123 123 124 126 128 125 124 125 124 124 119 113 110 103 59 60 54 41 39 54 52 49 53 63 107 139 124 104 124 112 112 117 129 143 141 157 134 127 129 127 123 123 124 120 116 112 110 107 105 105 102
105 110 116 118 122 121 118 121 124 131 132 130 134 149 147 139 130 129 132 140 143 140 133 128 127 123 128 119 112 115 101 109 118 124 121 124 126 133 127 126 129 126 125 124 115 113 114 121 112 72 65 50 44 60 55 43 53 79 122 117 107 124 116 120 120 126 133 151 156 161 142 138 130 129 128 129 126 125 124 121 113 109 108 103 102
106 110 120 121 118 120 120 121 130 132 129 130 146 146 118 104 112 125 135 138 132 117 104 111 97 107 102 108 109 118 122 112 112 123 110 126 131 128 125 131 131 128 126 121 114 112 116 121 129 82 66 74 63 73 72 65 41 70 111 112 123 121 117 114 119 128 141 160 163 152 150 135 131 133 132 134 124 123 121 121 119 115 108 105 104
69 82 119 112 115 119 122 127 132 131 125 133 120 101 104 107 106 103 97 97 96 101 109 115 110 111 117 115 116 119 104 129 141 136 128 118 126 124 130 131 127 127 123 112 111 117 110 104 101 95 59 53 89 82 89 92 79 92 109 118 118 116 114 117 124 129 145 156 174 156 152 140 136 136 138 133 129 126 124 120 119 115 112 112 109
38 66 104 127 120 119 123 122 118 115 116 114 100 101 100 103 101 104 99 98 102 107 113 114 118 112 107 104 104 105 108 100 83 87 96 110 91 81 82 75 83 94 104 95 86 79 69 54 26 36 62 92 64 82 101 100 109 110 119 121 110 106 106 104 100 104 121 144 179 154 152 141 144 151 136 139 135 124 121 118 118 117 113 109 111
144 136 137 130 128 124 123 126 121 123 122 109 116 124 137 124 116 123 114 100 105 108 105 116 117 121 121 116 106 112 109 105 95 90 80 88 88 78 85 95 105 114 111 96 75 70 62 59 55 53 148 183 147 120 129 140 128 116 120 109 111 105 103 97 93 95 130 139 141 128 116 127 161 141 137 138 127 121 118 117 116 116 113 110 107
147 146 143 138 138 129 128 125 120 126 130 136 139 133 130 121 127 131 126 122 117 112 108 118 129 131 126 127 129 128 117 108 107 100 88 82 88 87 118 163 137 103 82 88 74 67 68 69 73 83 74 75 65 79 136 157 152 122 123 124 119 117 116 115 111 116 144 140 123 110 102 99 122 126 138 136 124 123 120 114 111 117 117 116 110
149 150 145 147 143 134 137 137 142 145 143 144 138 136 127 128 139 125 122 137 134 128 128 137 124 129 132 131 125 128 135 130 131 119 112 92 122 148 163 153 120 99 84 100 100 80 74 70 81 57 66 59 75 81 99 127 120 121 124 120 122 129 128 124 117 108 91 89 93 107 103 92 117 118 135 131 125 126 125 124 121 124 125 120 113
156 154 156 149 142 142 141 138 138 137 143 147 142 130 146 143 149 134 134 147 139 144 139 146 137 136 128 128 130 135 141 133 131 121 106 125 159 178 161 145 116 116 105 86 109 102 83 82 69 58 54 72 85 89 93 82 82 102 121 125 129 132 133 120 114 111 115 109 100 111 101 87 99 134 138 128 124 124 128 130 134 131 127 122 120
166 160 160 154 143 150 149 150 149 147 150 146 121 134 153 153 151 135 127 138 136 147 144 154 147 130 129 134 138 151 150 136 127 117 132 160 175 167 140 124 110 119 109 102 107 112 113 90 72 58 65 79 90 99 94 91 83 90 109 122 130 139 130 126 125 138 128 103 95 95 91 64 60 111 133 139 124 117 97 117 137 133 129 124 124
161 167 162 154 153 153 149 151 151 147 150 147 144 157 153 155 152 147 149 152 150 151 157 151 136 126 140 136 132 133 116 116 127 132 133 163 172 147 132 123 102 80 106 107 101 115 114 119 135 136 114 104 94 79 98 93 89 87 99 118 130 112 100 96 120 118 106 120 97 69 63 67 71 72 105 110 121 125 110 93 136 141 128 123 127
163 163 160 151 151 153 150 152 151 151 152 145 151 140 162 159 156 145 153 138 147 152 138 118 131 122 128 118 117 115 112 114 128 136 161 175 168 127 134 122 123 77 103 111 106 98 107 98 94 95 85 84 88 74 79 96 83 86 99 105 106 105 108 106 107 101 112 81 61 52 52 53 72 80 73 60 43 115 130 106 117 136 145 138 136
148 127 130 144 146 138 140 154 151 151 149 157 151 152 168 165 148 163 142 133 149 133 133 136 98 120 119 115 123 123 135 141 137 158 172 174 154 118 109 113 121 120 111 115 107 105 97 100 84 75 80 72 86 84 80 83 92 88 95 89 107 114 113 113 80 56 65 61 55 47 37 43 42 51 55 51 50 44 116 127 129 134 141 154 153
124 111 130 140 140 137 144 147 155 144 153 154 146 155 159 160 140 125 114 117 128 129 131 135 154 170 149 131 128 135 150 133 148 160 147 149 142 133 135 126 124 127 120 120 113 119 115 108 112 92 86 84 85 99 104 91 86 85 79 109 122 120 117 94 130 102 49 62 69 60 46 40 39 44 37 41 41 41 47 61 43 55 109 128 160
122 130 149 147 148 141 143 153 160 148 158 155 152 147 140 134 121 116 116 125 138 132 130 142 166 153 123 120 129 142 139 144 162 155 160 151 156 159 164 143 142 138 133 111 116 110 124 122 114 108 88 90 94 75 92 104 100 93 113 142 139 116 94 118 117 75 68 62 59 55 53 50 47 51 40 41 37 50 73 67 63 53 56 52 59
149 153 153 151 145 140 142 144 163 159 161 147 110 112 123 115 120 136 136 131 138 147 146 156 144 113 107 124 135 137 142 155 160 153 152 170 172 174 157 149 148 135 107 107 115 127 128 108 100 133 118 100 103 84 74 89 88 96 122 121 101 103 122 104 100 86 90 78 68 65 59 52 47 59 59 42 37 46 57 52 51 53 59 66 7
156 159 158 151 147 150 147 150 168 171 157 132 121 119 121 123 131 134 148 148 170 171 156 138 143 147 140 132 133 131 144 161 152 155 160 181 174 139 141 140 145 132 119 106 105 137 136 114 89 86 118 125 108 99 90 96 99 99 121 107 104 123 114 109 102 102 94 89 77 68 63 73 51 74 60 56 49 46 50 53 54 56 55 66 70
158 156 155 151 151 153 157 158 166 174 152 147 139 134 131 128 133 139 158 170 181 171 138 146 154 130 132 145 145 137 156 164 151 161 172 181 144 139 139 152 144 124 119 111 105 76 82 106 104 59 83 110 112 112 110 103 101 113 113 120 134 106 116 113 105 122 89 103 91 86 88 56 56 62 62 54 57 53 50 52 62 59 59 57 55
138 148 150 147 142 145 156 161 157 153 140 138 133 125 121 113 103 119 130 163 183 152 141 164 139 124 166 159 139 146 168 178 154 163 159 155 143 148 153 162 135 128 128 122 118 104 91 80 109 91 66 72 104 114 119 113 103 111 104 75 72 68 78 75 78 77 43 26 97 31 64 40 45 45 48 49 46 63 64 58 58 59 51 54 54
127 143 148 144 140 141 149 149 154 151 141 133 133 129 130 144 142 133 148 197 197 176 176 172 142 170 180 164 146 157 174 174 162 162 158 153 154 162 155 150 145 138 139 134 135 136 132 113 107 111 104 82 71 102 115 109 82 62 46 32 28 27 34 44 49 57 67 58 41 46 42 49 50 48 58 59 43 57 66 78 71 66 63 52 51
140 147 143 143 145 147 142 147 151 151 144 141 144 146 149 142 142 165 176 183 182 165 161 169 171 166 179 166 152 168 171 169 166 152 153 146 142 150 151 154 149 151 157 162 133 127 125 125 117 108 119 111 84 100 125 122 114 92 71 52 37 22 30 39 52 86 76 48 64 72 56 61 56 57 59 73 92 83 90 79 80 75 64 58 40
157 148 145 144 147 144 147 150 150 150 151 155 154 160 167 168 158 163 149 150 160 162 167 171 154 167 172 170 165 164 161 158 147 141 138 139 147 160 166 163 159 154 141 124 125 127 128 125 127 94 41 116 120 165 164 106 62 126 123 86 35 14 9 28 40 39 77 83 79 73 55 67 67 69 62 62 64 75 75 74 65 50 61 61 44
155 148 140 141 143 143 145 151 151 152 159 162 159 157 141 127 138 143 143 122 64 91 111 148 141 161 171 166 160 154 157 154 150 148 145 156 157 161 176 174 164 150 132 140 134 137 148 149 146 136 117 65 105 74 27 79 128 107 108 99 96 49 337 5 26 34 21 59 75 81 88 79 80 68 70 67 61 65 82 82 71 57 47 52 47
152 143 150 149 146 145 149 151 155 160 157 153 126 114 124 119 104 121 101 108 156 107 76 81 95 110 124 135 146 156 150 145 151 154 152 158 159 168 166 176 168 154 145 146 145 142 148 149 132 140 136 123 114 55 18 70 133 137 104 102 175 124 79 17 12 3 23 58 59 74 82 84 78 68 65 75 75 82 81 66 61 58 54 54 52
159 156 157 155 151 153 154 152 154 153 137 130 129 129 115 97 92 85 89 73 58 64 82 54 81 119 112 130 175 154 153 146 151 157 157 161 165 165 165 170 157 149 139 143 155 157 163 155 148 143 155 143 136 120 11 50 80 55 138 115 73 83 204 203 110 10 8 32 35 71 89 86 76 77 81 82 76 72 75 70 65 58 52 49 46
159 154 155 148 144 146 142 135 127 127 137 139 143 144 148 144 142 138 133 115 117 124 152 162 158 154 184 174 132 135 147 144 152 153 153 161 169 173 162 155 159 153 151 157 152 135 148 149 167 151 126 102 138 124 96 20 72 78 100 164 167 168 165 191 84 146 1 52 43 60 76 75 78 80 79 89 91 83 72 80 63 61 55 50 46
153 141 142 140 136 134 134 134 138 136 137 141 147 141 136 146 153 150 149 155 155 193 165 160 165 178 137 160 154 104 147 151 150 141 141 158 167 180 166 159 149 145 143 141 160 171 166 158 142 138 154 127 123 135 150 164 64 39 54 57 85 95 144 136 150 113 76 336 27 45 46 60 71 77 88 92 99 90 64 74 67 57 49 43 46
145 139 137 140 138 136 134 134 133 136 137 141 153 157 153 161 152 145 150 149 160 168 165 164 141 138 126 131 119 129 59 61 129 136 151 153 167 174 155 147 139 132 137 152 163 163 142 125 153 154 145 158 160 151 161 173 152 187 30 77 77 79 100 85 111 148 140 134 87 58 55 52 67 42 53 85 83 95 95 64 70 64 50 43 51
149 148 145 139 130 129 128 128 129 130 134 146 157 176 166 159 149 145 143 156 147 138 136 128 131 122 119 108 133 143 95 89 107 157 156 163 171 175 166 157 146 145 133 130 138 155 155 149 147 147 161 159 166 154 145 175 151 167 120 64 82 82 78 75 99 88 134 123 122 136 107 33 70 39 25 34 53 62 73 84 82 70 59 48 44
147 139 128 127 128 130 135 137 138 140 143 142 145 150 159 146 142 147 148 149 121 109 121 129 123 119 123 120 117 111 108 93 86 133 140 159 173 173 179 176 161 158 144 137 140 148 153 159 171 167 152 143 131 153 169 170 171 159 150 150 118 105 91 78 68 106 65 69 151 161 152 140 121 334 25 25 32 34 41 46 59 53 50 42 29
148 147 139 134 135 137 143 146 150 141 144 148 147 152 151 151 148 151 155 151 145 137 133 131 122 116 128 131 128 110 85 120 112 58 97 114 131 162 184 185 159 158 149 146 154 165 174 171 160 137 156 157 151 138 125 151 152 150 144 150 154 159 165 164 172 162 142 127 97 100 84 75 136 107 2 24 38 41 45 34 38 40 53 42 27